Theta_e
314 316 315 320 331 333 335 334 334 332 336 334 333 336 342 344 348 358 354 354 352 356 355 346 339 341 343 346 350 347 346 337 332 332 334 335 331 331 340 344 346 343 339 331 330 328 326 328 326
317 314 317 325 332 336 335 334 335 333 334 333 333 335 349 351 351 356 357 355 354 356 354 348 339 341 344 347 349 346 345 335 333 334 335 333 331 331 337 341 345 339 329 326 332 331 327 325 324
314 316 319 323 329 334 336 334 334 333 332 332 332 333 340 356 355 353 356 354 355 354 350 348 338 340 343 347 347 346 344 337 338 337 335 332 330 332 334 341 339 337 327 329 334 332 331 328 328
313 316 319 322 324 328 332 334 332 333 332 331 331 334 339 352 355 353 355 354 354 352 349 343 336 338 341 345 346 346 344 342 343 340 336 331 329 333 339 339 340 340 329 332 336 337 339 333 338
313 317 317 318 319 322 327 330 332 332 332 331 330 333 333 349 357 356 354 354 353 350 348 343 334 335 337 341 343 344 345 345 345 342 336 331 330 336 336 338 337 336 332 329 337 337 338 341 342
315 316 316 318 319 320 323 326 329 330 331 331 330 331 337 350 355 356 353 353 351 349 348 346 333 332 333 334 337 339 342 343 343 339 335 331 330 335 338 337 337 335 332 332 331 335 336 337 337
316 316 316 317 318 319 319 321 324 326 327 328 329 329 338 347 355 356 353 353 350 349 347 346 342 336 331 330 330 331 333 333 333 333 331 328 330 335 338 337 336 336 333 329 329 328 330 333 334
316 317 318 318 318 317 318 317 319 319 320 321 322 325 329 350 349 357 355 353 351 350 347 346 344 343 343 340 330 329 329 331 330 328 327 326 330 335 337 336 336 336 336 332 329 328 329 329 330
316 317 319 320 317 318 317 316 317 318 319 320 323 329 337 343 353 356 354 353 351 350 348 346 344 343 342 343 340 333 331 330 329 329 327 329 338 340 340 340 341 334 336 333 327 325 326 328 329
315 318 319 320 319 317 317 317 317 317 318 318 319 327 340 348 355 358 356 355 352 350 349 346 345 344 343 343 344 343 343 340 339 338 338 335 336 338 338 341 337 336 337 337 330 327 327 325 331
316 319 319 318 317 317 317 317 317 317 318 319 319 320 336 342 352 357 357 356 353 350 350 348 347 347 346 346 346 344 345 344 344 343 342 340 342 342 341 343 343 344 341 341 339 338 337 335 336
317 317 317 318 316 316 316 317 317 317 318 318 318 319 328 340 349 356 357 356 354 352 352 350 349 350 348 347 348 347 346 346 347 347 347 346 345 344 341 339 339 340 339 339 339 337 336 338 338
317 317 315 316 315 315 316 316 317 317 317 317 317 318 319 326 339 350 357 356 355 353 353 352 351 352 351 351 350 350 349 348 348 348 349 347 346 346 345 343 341 339 338 337 338 337 338 338 337
317 315 316 315 316 315 315 316 315 316 316 316 316 317 318 320 324 336 356 358 356 354 354 354 353 354 354 354 353 352 352 350 350 349 349 348 347 347 346 347 345 343 341 338 336 336 338 339 335
316 316 316 316 315 315 315 315 315 316 315 316 317 318 319 320 321 327 345 358 356 354 354 355 354 354 354 354 354 354 352 351 350 350 350 349 348 348 348 346 346 344 343 342 339 339 339 339 338
316 317 317 317 317 317 315 317 318 317 316 316 316 317 318 320 323 327 336 355 355 353 354 354 353 353 355 354 355 353 352 351 351 350 350 351 350 349 349 346 345 344 344 342 340 338 339 341 340
318 318 317 318 316 317 316 317 318 317 318 318 317 317 318 320 328 332 339 347 354 353 353 354 354 353 354 354 354 354 353 352 351 350 350 351 350 350 350 347 347 347 345 343 340 338 341 345 347
320 319 319 319 317 316 317 317 317 318 317 318 319 318 319 320 324 332 341 347 352 352 350 353 355 355 355 354 354 353 352 351 350 349 349 352 351 350 350 347 347 347 345 345 344 343 341 344 346
320 320 319 318 318 317 318 318 319 318 318 318 319 319 320 321 323 328 343 350 352 352 351 351 352 353 353 354 353 351 352 350 349 349 350 350 349 348 348 348 348 348 349 348 349 346 346 345 343
319 320 320 319 317 317 319 319 318 318 318 318 319 320 320 321 325 337 346 351 350 352 352 351 351 353 352 352 352 351 350 349 349 349 349 348 348 348 348 348 347 347 346 346 346 346 346 344 343
320 320 321 321 319 317 319 319 319 318 318 318 319 320 321 321 322 326 340 346 350 352 352 351 352 353 352 353 352 349 349 348 348 348 348 347 347 348 348 346 345 344 344 342 342 342 342 343 342
322 319 319 319 319 320 319 321 320 320 319 319 319 319 320 321 322 322 325 337 344 349 351 351 352 352 351 350 349 349 349 350 348 349 347 346 344 343 342 342 342 342 343 343 340 340 341 340 341
320 319 318 318 319 319 319 320 322 321 320 319 319 319 320 321 321 322 323 330 339 344 346 346 347 348 347 347 348 348 348 348 345 343 341 341 338 336 336 337 338 339 339 339 337 337 339 340 339
319 319 319 318 318 320 320 320 322 320 320 319 319 322 325 327 326 324 324 334 339 341 342 343 344 345 345 346 347 348 347 345 343 342 340 337 335 332 330 331 331 331 331 331 331 333 333 333 334
319 321 323 321 321 322 320 320 321 324 325 320 325 330 331 330 327 327 332 337 339 341 342 341 340 340 341 342 342 343 342 341 339 337 334 331 329 326 324 324 323 323 322 323 324 327 327 328 330
321 321 322 324 324 322 320 321 323 331 332 330 333 332 331 331 331 333 334 334 335 337 337 337 337 338 337 336 335 334 332 330 329 328 327 325 323 321 319 319 318 317 317 316 316 318 320 320 322
320 320 320 322 322 322 320 324 331 333 331 331 332 330 328 328 330 333 334 334 335 336 335 335 334 332 330 329 328 327 326 325 324 322 321 319 318 317 316 315 315 313 313 312 311 312 314 315 316
319 319 320 322 324 324 321 323 324 334 332 331 330 329 327 328 328 328 329 330 330 330 331 330 329 328 327 326 325 323 321 320 319 318 317 316 315 314 314 313 313 313 313 313 313 313 313 314 314
320 320 320 321 322 324 323 324 327 332 333 331 329 327 329 329 328 328 328 328 327 327 325 324 323 322 321 320 319 318 318 317 316 315 315 314 314 313 312 312 312 312 312 313 313 313 312 312 313
320 321 321 321 323 322 325 336 331 334 331 329 327 326 325 324 323 322 321 320 319 320 320 319 319 318 317 317 316 316 316 315 315 314 313 313 312 312 311 311 312 312 312 312 312 312 312 312 312
Wind_Speed
6 6 6 8 7 7 16 14 10 7 7 4 4 5 8 9 5 4 3 12 21 25 26 29 28 24 23 25 32 32 29 27 28 26 26 25 25 26 24 20 17 15 13 12 11 12 12 12 13
4 5 8 6 9 15 15 17 11 9 7 5 4 5 4 5 4 8 12 14 25 26 26 27 29 26 24 27 33 32 30 29 28 25 24 24 25 25 23 19 15 13 13 13 12 12 12 12 13
3 7 7 7 15 19 17 7 10 10 4 4 3 2 3 4 4 4 7 21 26 26 27 27 32 29 27 29 33 32 30 29 26 24 23 23 24 24 21 18 15 13 13 13 12 12 12 13 14
7 7 5 12 20 20 23 3 2 7 7 2 3 4 4 6 2 2 15 24 26 27 26 29 32 30 29 30 31 31 29 28 26 24 22 22 23 22 19 16 13 13 12 13 12 12 12 12 11
10 5 12 17 24 21 17 21 10 10 5 5 2 4 5 4 3 6 17 24 26 26 25 30 33 31 29 30 30 29 28 27 25 22 21 21 22 21 18 15 13 12 12 11 11 11 11 11 10
8 7 12 19 21 21 17 13 14 17 16 7 9 8 2 5 3 10 17 23 25 26 26 28 33 32 31 28 28 28 27 27 24 22 21 21 21 20 17 14 12 11 10 9 9 10 10 9 9
15 11 19 21 18 20 15 11 17 17 16 16 8 12 2 4 6 10 16 20 23 25 26 25 26 30 31 29 27 26 26 25 24 23 22 21 21 19 16 14 11 10 9 8 8 8 9 9 9
12 10 22 21 16 20 6 11 13 16 18 10 8 9 11 8 6 11 17 19 22 24 25 26 26 25 24 25 27 27 25 23 22 21 20 20 20 18 16 14 11 10 8 7 7 8 9 10 10
16 11 18 23 19 16 8 13 10 5 11 10 10 5 9 4 9 14 19 20 23 23 24 25 26 25 24 23 23 25 24 23 22 21 21 21 16 16 15 12 13 11 9 8 7 8 9 10 10
16 17 24 17 13 13 11 12 10 8 12 13 12 8 3 9 11 14 19 23 25 25 25 26 25 25 24 22 21 20 19 19 19 18 19 17 15 15 14 14 15 13 11 10 9 9 9 10 10
17 24 19 12 13 15 15 12 8 10 14 12 13 12 6 6 10 15 18 20 25 24 23 24 24 24 24 21 20 20 18 17 16 17 18 16 15 15 15 13 13 13 14 12 12 11 10 11 11
17 24 20 15 14 17 16 14 15 13 13 2 8 8 6 9 10 12 18 22 23 24 23 23 23 22 22 20 20 19 18 18 17 18 18 16 15 14 14 13 13 14 15 15 16 15 15 14 13
27 17 14 18 15 15 13 15 16 14 10 8 9 11 13 10 10 14 16 20 23 26 25 25 24 22 22 19 19 18 18 19 18 17 18 17 16 15 15 14 12 12 13 14 16 16 16 16 16
11 23 19 16 20 17 17 15 16 13 11 17 17 16 17 15 14 13 17 22 24 23 23 25 25 23 22 22 20 19 18 16 17 17 17 17 15 14 13 12 11 12 13 14 15 16 17 19 17
18 13 19 22 17 14 16 22 26 19 16 15 15 14 16 16 15 16 18 20 21 20 20 22 21 21 22 21 20 18 17 16 16 17 16 19 19 15 14 12 11 12 13 14 15 15 17 18 19
21 19 20 19 23 22 12 18 21 23 21 21 20 17 16 18 16 18 19 22 22 21 21 22 22 22 21 20 18 17 15 16 13 15 15 17 16 14 15 9 11 12 13 14 15 15 17 17 18
17 19 25 18 18 15 23 15 20 15 20 22 19 17 17 16 15 14 17 22 23 22 22 22 21 20 21 19 16 15 12 12 12 14 14 14 14 16 12 10 11 12 14 14 15 15 17 16 17
25 22 18 24 19 21 21 20 7 11 19 17 16 16 16 15 15 15 15 18 21 21 20 18 17 17 17 16 16 14 13 12 11 12 12 10 12 11 9 11 13 14 14 15 17 16 17 17 17
18 21 23 14 14 24 25 21 17 12 12 16 18 15 13 14 14 12 13 17 21 20 19 18 17 16 17 16 16 15 14 13 11 11 9 8 7 6 8 11 13 13 14 15 16 19 19 20 21
25 15 18 14 12 19 20 21 21 19 16 13 14 15 14 16 12 10 12 18 21 23 22 20 18 17 17 15 13 10 11 9 8 7 6 6 5 6 8 10 12 14 16 17 19 20 22 23 19
26 20 16 20 15 16 12 18 19 18 18 17 16 15 15 15 14 13 13 15 17 21 20 19 18 17 16 13 12 9 8 5 6 7 7 5 6 8 8 9 10 11 13 17 18 19 20 22 22
26 22 13 17 18 12 17 10 21 19 18 18 18 15 14 14 11 10 9 15 14 13 14 16 16 16 14 14 11 10 8 7 4 4 3 2 1 3 4 5 7 9 11 12 12 12 13 14 16
22 21 15 14 14 7 16 9 16 21 20 19 19 19 14 9 9 8 5 8 13 14 15 15 16 15 13 12 10 11 8 7 6 4 5 5 4 4 3 3 4 5 6 7 10 10 10 13 15
21 25 19 14 10 10 15 16 15 15 21 19 20 10 9 8 7 6 8 12 15 15 15 16 16 14 12 11 9 8 8 7 6 4 4 4 4 5 8 6 5 6 6 7 7 8 8 12 14
26 25 14 13 11 13 21 13 4 12 3 16 14 12 8 7 9 12 13 12 14 15 17 17 17 16 13 12 11 10 10 11 11 8 8 8 7 7 9 8 9 6 7 7 8 7 7 7 8
32 31 19 32 20 16 18 11 12 13 7 7 11 9 9 8 10 12 12 14 16 16 16 18 19 20 18 18 18 18 16 15 14 11 9 10 8 8 8 8 7 7 8 8 9 9 9 10 9
32 27 24 17 17 15 11 7 7 16 11 12 13 13 13 12 12 14 16 18 19 20 20 22 23 23 21 21 20 19 17 15 14 12 11 10 10 7 8 7 7 8 8 9 10 8 8 10 11
23 28 20 11 23 18 14 17 11 17 14 14 14 14 15 16 18 17 16 21 23 25 25 25 23 23 20 19 17 17 16 14 14 13 13 11 8 7 7 8 9 9 8 9 10 9 9 11 10
19 20 18 12 12 10 12 13 9 20 18 18 16 17 18 19 19 18 17 25 26 26 25 24 22 21 20 18 17 16 15 14 14 13 10 8 7 8 8 9 9 9 9 10 10 10 10 12 12
22 29 24 14 14 10 11 7 4 19 16 17 18 18 19 20 19 19 19 25 24 24 23 23 21 20 18 16 16 15 14 12 12 10 8 7 7 8 9 10 10 10 10 11 11 11 11 12 13
Wind_Direction
286 271 240 234 240 228 245 231 249 227 195 83 347 288 324 319 353 15 144 156 153 155 159 162 167 167 170 175 174 172 170 169 167 168 165 163 161 159 157 154 151 150 149 151 154 155 157 158 154
253 227 216 242 241 233 232 231 208 209 66 311 289 278 194 87 49 104 129 158 157 156 158 162 167 166 170 171 172 172 172 170 168 169 166 165 165 162 162 162 158 157 150 151 151 150 151 152 151
206 217 231 225 230 237 239 173 226 226 188 280 300 349 28 66 79 132 122 156 157 158 157 164 169 168 170 170 173 173 174 172 170 170 170 168 168 166 164 165 164 160 155 154 153 149 149 151 149
187 193 243 237 229 224 240 172 229 218 224 210 349 257 149 61 20 63 154 158 159 160 160 169 170 171 170 173 175 175 176 174 172 173 175 172 170 167 164 164 166 162 160 161 156 153 153 157 159
206 237 235 230 240 239 224 253 179 215 186 237 302 256 316 81 28 161 162 164 163 162 163 164 170 172 173 172 174 176 177 178 177 177 178 176 173 169 166 166 166 165 167 167 166 167 172 175 178
205 248 230 231 230 232 222 235 237 236 245 249 273 264 44 85 104 158 169 171 167 164 164 167 172 172 173 173 174 176 179 180 182 181 181 178 175 172 170 169 169 167 170 174 180 182 186 191 200
235 215 238 245 242 231 220 240 236 240 240 243 225 270 74 131 108 159 170 175 171 167 166 166 169 174 173 173 174 176 178 180 182 180 181 179 177 176 176 177 175 173 175 182 189 197 204 212 223
223 242 245 238 238 240 198 227 236 234 243 258 245 238 232 113 143 155 172 178 176 174 171 170 170 173 172 173 175 174 174 177 179 179 179 179 181 183 184 187 188 186 187 193 200 208 216 225 234
229 231 234 234 220 240 215 222 206 235 240 209 195 278 23 142 160 161 171 178 182 183 177 177 174 176 176 174 179 177 175 176 179 179 180 181 179 186 197 191 211 201 203 209 217 223 228 236 248
208 226 235 240 225 232 205 226 179 207 211 217 221 176 124 147 167 177 184 180 186 186 183 181 182 179 180 179 179 176 178 177 176 179 181 180 187 190 194 203 209 208 214 224 229 233 241 250 242
217 237 232 240 223 236 242 220 211 230 237 203 215 205 165 175 186 188 197 197 186 186 187 186 186 185 185 183 181 183 184 186 188 186 185 188 190 194 194 204 210 215 222 222 232 228 234 236 242
242 224 246 230 224 238 238 242 235 222 233 239 219 259 243 201 194 217 202 196 191 189 190 190 188 189 191 188 187 188 190 192 196 197 194 193 193 195 202 213 217 219 225 231 229 229 222 219 232
220 241 227 234 235 229 240 233 237 219 223 241 242 249 234 232 217 208 213 204 195 193 191 192 190 191 192 193 194 197 200 198 200 201 204 203 200 203 206 212 220 232 237 239 244 244 238 232 231
213 232 234 233 232 231 236 228 233 233 250 249 250 242 239 224 228 221 206 203 199 193 193 192 192 193 194 195 196 200 203 206 206 204 207 213 213 214 216 222 229 237 244 251 250 250 253 250 239
251 243 230 229 220 224 235 245 239 240 237 234 217 221 235 232 218 220 211 205 196 194 195 193 193 199 200 202 203 202 205 207 210 216 210 215 217 216 224 224 237 248 255 256 255 257 253 261 260
215 223 232 215 220 220 208 249 216 219 222 223 232 240 233 233 216 213 202 200 195 195 193 191 193 196 201 205 208 209 208 204 215 224 219 219 224 226 229 231 251 258 258 258 264 258 262 261 263
199 217 221 214 200 203 210 239 235 198 215 224 224 226 228 222 210 208 206 196 194 191 187 188 192 198 202 203 206 208 199 210 203 223 223 226 219 226 233 239 247 261 267 266 264 260 258 262 269
206 216 221 214 179 216 203 233 165 218 202 212 209 213 218 219 214 198 207 204 185 189 185 183 187 193 196 196 196 204 207 208 210 218 219 215 217 226 241 253 259 257 262 264 261 260 259 262 264
216 210 224 205 185 212 217 217 214 171 190 217 222 217 217 217 217 190 189 189 180 190 185 183 184 186 183 188 195 203 207 208 212 216 210 210 220 233 250 253 261 266 269 271 272 271 269 269 269
230 228 209 187 182 207 208 218 231 226 224 216 215 205 201 203 198 169 166 177 185 186 188 183 183 183 186 189 192 196 203 205 216 206 193 191 199 221 242 264 274 280 281 280 277 273 272 268 268
218 220 200 202 190 216 192 217 228 230 228 221 216 210 191 190 189 176 164 176 184 186 182 177 178 178 176 173 165 158 158 162 194 201 205 222 240 255 267 274 271 273 277 279 281 278 274 275 272
206 204 192 202 182 195 204 215 206 216 205 212 210 203 197 194 204 209 181 171 177 176 173 167 168 166 161 162 170 178 195 195 172 163 160 179 265 263 272 276 284 284 286 286 291 293 289 282 275
215 187 196 174 199 184 189 242 186 205 205 202 203 199 189 177 188 202 191 151 156 146 153 157 162 164 166 172 171 166 175 166 161 143 117 113 95 83 56 12 336 325 304 320 303 302 294 282 280
201 183 197 196 204 213 205 219 170 192 207 197 193 169 169 177 169 157 139 126 129 138 140 144 148 148 153 156 157 165 163 165 148 126 131 115 109 80 57 47 36 21 2 350 334 334 335 310 298
206 164 176 188 192 218 199 196 358 127 186 170 163 161 152 163 150 145 135 111 117 124 129 126 125 121 125 126 125 126 123 114 114 117 111 108 90 67 45 41 35 19 11 2 351 343 333 330 317
197 181 180 180 192 184 182 206 161 107 100 118 99 117 119 112 110 113 115 121 123 120 115 115 114 112 111 109 106 105 106 108 105 97 94 78 70 57 43 32 20 8 2 360 351 338 334 326 319
187 200 200 193 191 161 168 132 122 122 122 132 127 111 106 112 109 114 112 110 108 108 108 110 109 107 105 103 100 96 96 95 92 86 78 69 56 42 27 15 7 1 355 351 349 325 322 314 306
194 198 207 225 178 172 177 178 155 160 146 134 122 118 119 113 106 106 105 104 103 103 105 104 103 101 101 99 96 95 94 93 89 79 68 61 47 31 16 6 2 348 344 347 341 322 311 310 307
196 196 206 216 189 176 166 172 127 151 149 139 130 125 120 110 108 105 107 108 107 105 103 102 100 99 95 95 96 96 92 86 80 74 63 51 31 16 3 357 341 333 333 331 321 317 311 310 308
206 201 203 204 185 202 162 110 284 114 134 130 125 119 112 109 108 105 104 103 100 99 99 96 96 94 94 96 93 88 83 78 72 62 47 28 12 360 353 339 328 325 327 321 321 320 318 315 311